owner,sensor,date,latitude,longitude,vertical_datum,mass_concentration_of_oxygen_in_sea_water,qcFlag 
DISL,ioos:station:DISL:CATA:1,2015-07-01T00:00:00Z,30.3085,-88.1395,1.78,7.23,1111122 
DISL,ioos:station:DISL:CATA:1,2015-07-01T00:30:00Z,30.3085,-88.1395,1.813,6.8,1111122 
DISL,ioos:station:DISL:CATA:1,2015-07-01T01:00:00Z,30.3085,-88.1395,1.842,6.45,1111122 
DISL,ioos:station:DISL:CATA:1,2015-07-01T01:30:00Z,30.3085,-88.1395,1.865,6.18,1111122 
DISL,ioos:station:DISL:CATA:1,2015-07-01T02:00:00Z,30.3085,-88.1395,1.882,5.99,1111122 
DISL,ioos:station:DISL:CATA:1,2015-07-01T02:30:00Z,30.3085,-88.1395,1.888,4.64,1111122 
DISL,ioos:station:DISL:CATA:1,2015-07-01T03:00:00Z,30.3085,-88.1395,1.879,5.29,1111122 
DISL,ioos:station:DISL:CATA:1,2015-07-01T03:30:00Z,30.3085,-88.1395,1.888,6.01,1111122 
DISL,ioos:station:DISL:CATA:1,2015-07-01T04:00:00Z,30.3085,-88.1395,1.887,6.12,1111122 
DISL,ioos:station:DISL:CATA:1,2015-07-01T04:30:00Z,30.3085,-88.1395,1.915,5.88,1111122 
DISL,ioos:station:DISL:CATA:1,2015-07-01T05:00:00Z,30.3085,-88.1395,1.937,5.93,1111122 
DISL,ioos:station:DISL:CATA:1,2015-07-01T05:30:00Z,30.3085,-88.1395,1.913,6.12,1111122 
DISL,ioos:station:DISL:CATA:1,2015-07-01T06:00:00Z,30.3085,-88.1395,1.935,5.96,1111122 
DISL,ioos:station:DISL:CATA:1,2015-07-01T06:30:00Z,30.3085,-88.1395,2.022,4.4,1111122 
DISL,ioos:station:DISL:CATA:1,2015-07-01T07:00:00Z,30.3085,-88.1395,2.041,5.82,1111122 
DISL,ioos:station:DISL:CATA:1,2015-07-01T07:30:00Z,30.3085,-88.1395,2.068,6.0,1111122 
DISL,ioos:station:DISL:CATA:1,2015-07-01T08:00:00Z,30.3085,-88.1395,2.07,6.23,1111122 
DISL,ioos:station:DISL:CATA:1,2015-07-01T08:30:00Z,30.3085,-88.1395,2.094,6.3,1111122 
DISL,ioos:station:DISL:CATA:1,2015-07-01T09:00:00Z,30.3085,-88.1395,2.096,6.42,1111122 
DISL,ioos:station:DISL:CATA:1,2015-07-01T09:30:00Z,30.3085,-88.1395,2.108,6.37,1111122 
DISL,ioos:station:DISL:CATA:1,2015-07-01T10:00:00Z,30.3085,-88.1395,2.097,6.19,1111122 
DISL,ioos:station:DISL:CATA:1,2015-07-01T10:30:00Z,30.3085,-88.1395,2.122,4.37,1111122 
DISL,ioos:station:DISL:CATA:1,2015-07-01T11:00:00Z,30.3085,-88.1395,2.181,4.69,1111122 
DISL,ioos:station:DISL:CATA:1,2015-07-01T11:30:00Z,30.3085,-88.1395,2.253,5.58,1111122 
DISL,ioos:station:DISL:CATA:1,2015-07-01T12:00:00Z,30.3085,-88.1395,2.271,6.05,1111122 
DISL,ioos:station:DISL:CATA:1,2015-07-01T12:30:00Z,30.3085,-88.1395,2.308,6.18,1111122 
DISL,ioos:station:DISL:CATA:1,2015-07-01T13:00:00Z,30.3085,-88.1395,2.323,6.16,1111122 
DISL,ioos:station:DISL:CATA:1,2015-07-01T13:30:00Z,30.3085,-88.1395,2.35,6.58,1111122 
DISL,ioos:station:DISL:CATA:1,2015-07-01T14:00:00Z,30.3085,-88.1395,2.367,6.83,1111122 
DISL,ioos:station:DISL:CATA:1,2015-07-01T14:30:00Z,30.3085,-88.1395,2.385,6.87,1111122 
DISL,ioos:station:DISL:CATA:1,2015-07-01T15:00:00Z,30.3085,-88.1395,2.39,6.89,1111122 
DISL,ioos:station:DISL:CATA:1,2015-07-01T15:30:00Z,30.3085,-88.1395,2.388,6.99,1111122 
DISL,ioos:station:DISL:CATA:1,2015-07-01T16:00:00Z,30.3085,-88.1395,2.383,7.16,1111122 
DISL,ioos:station:DISL:CATA:1,2015-07-01T16:30:00Z,30.3085,-88.1395,2.364,7.36,1111122 
DISL,ioos:station:DISL:CATA:1,2015-07-01T17:00:00Z,30.3085,-88.1395,2.353,7.51,1111122 
DISL,ioos:station:DISL:CATA:1,2015-07-01T17:30:00Z,30.3085,-88.1395,2.338,7.02,1111122 
DISL,ioos:station:DISL:CATA:1,2015-07-01T18:00:00Z,30.3085,-88.1395,2.305,5.68,1111122 
DISL,ioos:station:DISL:CATA:1,2015-07-01T18:30:00Z,30.3085,-88.1395,2.284,7.0,1111122 
DISL,ioos:station:DISL:CATA:1,2015-07-01T19:00:00Z,30.3085,-88.1395,2.25,6.62,1111122 
DISL,ioos:station:DISL:CATA:1,2015-07-01T19:30:00Z,30.3085,-88.1395,2.206,6.94,1111122 
DISL,ioos:station:DISL:CATA:1,2015-07-01T20:00:00Z,30.3085,-88.1395,2.168,6.5,1111122 
DISL,ioos:station:DISL:CATA:1,2015-07-01T20:30:00Z,30.3085,-88.1395,2.124,6.4,1111122 
DISL,ioos:station:DISL:CATA:1,2015-07-01T21:00:00Z,30.3085,-88.1395,2.099,6.27,1111122 
DISL,ioos:station:DISL:CATA:1,2015-07-01T21:30:00Z,30.3085,-88.1395,2.062,6.16,1111122 
DISL,ioos:station:DISL:CATA:1,2015-07-01T22:00:00Z,30.3085,-88.1395,2.044,5.84,1111122 
DISL,ioos:station:DISL:CATA:1,2015-07-01T22:30:00Z,30.3085,-88.1395,2.008,6.7,1111122 
DISL,ioos:station:DISL:CATA:1,2015-07-01T23:00:00Z,30.3085,-88.1395,1.999,6.8,1111122 
DISL,ioos:station:DISL:CATA:1,2015-07-01T23:30:00Z,30.3085,-88.1395,1.954,6.81,1111122 
DISL,ioos:station:DISL:CATA:1,2015-07-02T00:00:00Z,30.3085,-88.1395,1.982,6.56,1111122 
DISL,ioos:station:DISL:CATA:1,2015-07-02T00:30:00Z,30.3085,-88.1395,1.921,6.41,1111122 
DISL,ioos:station:DISL:CATA:1,2015-07-02T01:00:00Z,30.3085,-88.1395,1.929,6.36,1111122 
DISL,ioos:station:DISL:CATA:1,2015-07-02T01:30:00Z,30.3085,-88.1395,1.907,4.42,1111122 
DISL,ioos:station:DISL:CATA:1,2015-07-02T02:00:00Z,30.3085,-88.1395,1.852,4.3,1111122 
DISL,ioos:station:DISL:CATA:1,2015-07-02T02:30:00Z,30.3085,-88.1395,1.815,4.17,1111122 
DISL,ioos:station:DISL:CATA:1,2015-07-02T03:00:00Z,30.3085,-88.1395,1.826,4.27,1111122 
DISL,ioos:station:DISL:CATA:1,2015-07-02T03:30:00Z,30.3085,-88.1395,1.84,4.75,1111122 
DISL,ioos:station:DISL:CATA:1,2015-07-02T04:00:00Z,30.3085,-88.1395,1.845,5.0,1111122 
DISL,ioos:station:DISL:CATA:1,2015-07-02T04:30:00Z,30.3085,-88.1395,1.888,5.13,1111122 
DISL,ioos:station:DISL:CATA:1,2015-07-02T05:00:00Z,30.3085,-88.1395,1.925,4.85,1111122 
DISL,ioos:station:DISL:CATA:1,2015-07-02T05:30:00Z,30.3085,-88.1395,1.927,4.97,1111122 
DISL,ioos:station:DISL:CATA:1,2015-07-02T06:00:00Z,30.3085,-88.1395,1.935,4.85,1111122 
DISL,ioos:station:DISL:CATA:1,2015-07-02T06:30:00Z,30.3085,-88.1395,1.98,4.75,1111122 
DISL,ioos:station:DISL:CATA:1,2015-07-02T07:00:00Z,30.3085,-88.1395,2.007,4.51,1111122 
DISL,ioos:station:DISL:CATA:1,2015-07-02T07:30:00Z,30.3085,-88.1395,2.031,5.65,1111122 
DISL,ioos:station:DISL:CATA:1,2015-07-02T08:00:00Z,30.3085,-88.1395,2.06,5.6,1111122 
DISL,ioos:station:DISL:CATA:1,2015-07-02T08:30:00Z,30.3085,-88.1395,2.102,5.81,1111122 
DISL,ioos:station:DISL:CATA:1,2015-07-02T09:00:00Z,30.3085,-88.1395,2.12,5.79,1111122 
DISL,ioos:station:DISL:CATA:1,2015-07-02T09:30:00Z,30.3085,-88.1395,2.144,5.74,1111122 
DISL,ioos:station:DISL:CATA:1,2015-07-02T10:00:00Z,30.3085,-88.1395,2.181,6.03,1111122 
DISL,ioos:station:DISL:CATA:1,2015-07-02T10:30:00Z,30.3085,-88.1395,2.222,6.32,1111122 
DISL,ioos:station:DISL:CATA:1,2015-07-02T11:00:00Z,30.3085,-88.1395,2.248,6.4,1111122 
DISL,ioos:station:DISL:CATA:1,2015-07-02T11:30:00Z,30.3085,-88.1395,2.28,6.27,1111122 
DISL,ioos:station:DISL:CATA:1,2015-07-02T12:00:00Z,30.3085,-88.1395,2.331,6.27,1111122 
DISL,ioos:station:DISL:CATA:1,2015-07-02T12:30:00Z,30.3085,-88.1395,2.333,6.31,1111122 
DISL,ioos:station:DISL:CATA:1,2015-07-02T13:00:00Z,30.3085,-88.1395,2.346,6.35,1111122 
DISL,ioos:station:DISL:CATA:1,2015-07-02T13:30:00Z,30.3085,-88.1395,2.391,6.38,1111122 
DISL,ioos:station:DISL:CATA:1,2015-07-02T14:00:00Z,30.3085,-88.1395,2.454,6.44,1111122 
DISL,ioos:station:DISL:CATA:1,2015-07-02T14:30:00Z,30.3085,-88.1395,2.457,6.59,1111122 
DISL,ioos:station:DISL:CATA:1,2015-07-02T15:00:00Z,30.3085,-88.1395,2.482,6.55,1111122 
DISL,ioos:station:DISL:CATA:1,2015-07-02T15:30:00Z,30.3085,-88.1395,2.505,6.53,1111122 
DISL,ioos:station:DISL:CATA:1,2015-07-02T16:00:00Z,30.3085,-88.1395,2.509,6.46,1111122 
DISL,ioos:station:DISL:CATA:1,2015-07-02T16:30:00Z,30.3085,-88.1395,2.483,6.46,1111122 
DISL,ioos:station:DISL:CATA:1,2015-07-02T17:00:00Z,30.3085,-88.1395,2.465,6.41,1111122 
DISL,ioos:station:DISL:CATA:1,2015-07-02T17:30:00Z,30.3085,-88.1395,2.471,6.37,1111122 
DISL,ioos:station:DISL:CATA:1,2015-07-02T18:00:00Z,30.3085,-88.1395,2.428,6.32,1111122 
DISL,ioos:station:DISL:CATA:1,2015-07-02T18:30:00Z,30.3085,-88.1395,2.385,5.66,1111122 
DISL,ioos:station:DISL:CATA:1,2015-07-02T19:00:00Z,30.3085,-88.1395,2.364,5.99,1111122 
DISL,ioos:station:DISL:CATA:1,2015-07-02T19:30:00Z,30.3085,-88.1395,2.346,5.95,1111122 
DISL,ioos:station:DISL:CATA:1,2015-07-02T20:00:00Z,30.3085,-88.1395,2.307,5.11,1111122 
DISL,ioos:station:DISL:CATA:1,2015-07-02T20:30:00Z,30.3085,-88.1395,2.259,4.29,1111122 
DISL,ioos:station:DISL:CATA:1,2015-07-02T21:00:00Z,30.3085,-88.1395,2.215,4.52,1111122 
DISL,ioos:station:DISL:CATA:1,2015-07-02T21:30:00Z,30.3085,-88.1395,2.176,5.26,1111122 
DISL,ioos:station:DISL:CATA:1,2015-07-02T22:00:00Z,30.3085,-88.1395,2.127,4.95,1111122 
DISL,ioos:station:DISL:CATA:1,2015-07-02T22:30:00Z,30.3085,-88.1395,2.081,3.48,1111122 
DISL,ioos:station:DISL:CATA:1,2015-07-02T23:00:00Z,30.3085,-88.1395,2.043,3.23,1111122 
DISL,ioos:station:DISL:CATA:1,2015-07-02T23:30:00Z,30.3085,-88.1395,2.007,3.43,1111122 
DISL,ioos:station:DISL:CATA:1,2015-07-03T00:00:00Z,30.3085,-88.1395,1.984,3.57,1111122 
DISL,ioos:station:DISL:CATA:1,2015-07-03T00:30:00Z,30.3085,-88.1395,1.944,3.73,1111122 
DISL,ioos:station:DISL:CATA:1,2015-07-03T01:00:00Z,30.3085,-88.1395,1.915,3.84,1111122 
DISL,ioos:station:DISL:CATA:1,2015-07-03T01:30:00Z,30.3085,-88.1395,1.899,4.16,1111122 
DISL,ioos:station:DISL:CATA:1,2015-07-03T02:00:00Z,30.3085,-88.1395,1.882,4.44,1111122 
DISL,ioos:station:DISL:CATA:1,2015-07-03T02:30:00Z,30.3085,-88.1395,1.863,4.27,1111122 
DISL,ioos:station:DISL:CATA:1,2015-07-03T03:00:00Z,30.3085,-88.1395,1.863,4.4,1111122 
DISL,ioos:station:DISL:CATA:1,2015-07-03T03:30:00Z,30.3085,-88.1395,1.884,4.31,1111122 
DISL,ioos:station:DISL:CATA:1,2015-07-03T04:00:00Z,30.3085,-88.1395,1.898,4.68,1111122 
DISL,ioos:station:DISL:CATA:1,2015-07-03T04:30:00Z,30.3085,-88.1395,1.916,4.21,1111122 
DISL,ioos:station:DISL:CATA:1,2015-07-03T05:00:00Z,30.3085,-88.1395,1.934,4.97,1111122 
DISL,ioos:station:DISL:CATA:1,2015-07-03T05:30:00Z,30.3085,-88.1395,1.935,4.88,1111122 
DISL,ioos:station:DISL:CATA:1,2015-07-03T06:00:00Z,30.3085,-88.1395,1.963,4.89,1111122 
DISL,ioos:station:DISL:CATA:1,2015-07-03T06:30:00Z,30.3085,-88.1395,1.972,4.74,1111122 
DISL,ioos:station:DISL:CATA:1,2015-07-03T07:00:00Z,30.3085,-88.1395,1.999,4.81,1111122 
DISL,ioos:station:DISL:CATA:1,2015-07-03T07:30:00Z,30.3085,-88.1395,2.031,5.51,1111122 
DISL,ioos:station:DISL:CATA:1,2015-07-03T08:00:00Z,30.3085,-88.1395,2.051,5.95,1111122 
DISL,ioos:station:DISL:CATA:1,2015-07-03T08:30:00Z,30.3085,-88.1395,2.082,6.1,1111122 
DISL,ioos:station:DISL:CATA:1,2015-07-03T09:00:00Z,30.3085,-88.1395,2.104,6.06,1111122 
DISL,ioos:station:DISL:CATA:1,2015-07-03T09:30:00Z,30.3085,-88.1395,2.119,5.98,1111122 
DISL,ioos:station:DISL:CATA:1,2015-07-03T10:00:00Z,30.3085,-88.1395,2.151,5.97,1111122 
DISL,ioos:station:DISL:CATA:1,2015-07-03T10:30:00Z,30.3085,-88.1395,2.168,5.9,1111122 
DISL,ioos:station:DISL:CATA:1,2015-07-03T11:00:00Z,30.3085,-88.1395,2.199,5.98,1111122 
DISL,ioos:station:DISL:CATA:1,2015-07-03T11:30:00Z,30.3085,-88.1395,2.228,5.98,1111122 
DISL,ioos:station:DISL:CATA:1,2015-07-03T12:00:00Z,30.3085,-88.1395,2.254,5.99,1111122 
DISL,ioos:station:DISL:CATA:1,2015-07-03T12:30:00Z,30.3085,-88.1395,2.286,6.16,1111122 
DISL,ioos:station:DISL:CATA:1,2015-07-03T13:00:00Z,30.3085,-88.1395,2.331,6.23,1111122 
DISL,ioos:station:DISL:CATA:1,2015-07-03T13:30:00Z,30.3085,-88.1395,2.367,6.26,1111122 
DISL,ioos:station:DISL:CATA:1,2015-07-03T14:00:00Z,30.3085,-88.1395,2.399,6.32,1111122 
DISL,ioos:station:DISL:CATA:1,2015-07-03T14:30:00Z,30.3085,-88.1395,2.428,6.43,1111122 
DISL,ioos:station:DISL:CATA:1,2015-07-03T15:00:00Z,30.3085,-88.1395,2.454,6.49,1111122 
DISL,ioos:station:DISL:CATA:1,2015-07-03T15:30:00Z,30.3085,-88.1395,2.467,6.78,1111122 
DISL,ioos:station:DISL:CATA:1,2015-07-03T16:00:00Z,30.3085,-88.1395,2.468,6.89,1111122 
DISL,ioos:station:DISL:CATA:1,2015-07-03T16:30:00Z,30.3085,-88.1395,2.473,6.94,1111122 
DISL,ioos:station:DISL:CATA:1,2015-07-03T17:00:00Z,30.3085,-88.1395,2.47,7.03,1111122 
DISL,ioos:station:DISL:CATA:1,2015-07-03T17:30:00Z,30.3085,-88.1395,2.462,7.2,1111122 
DISL,ioos:station:DISL:CATA:1,2015-07-03T18:00:00Z,30.3085,-88.1395,2.438,6.99,1111122 
DISL,ioos:station:DISL:CATA:1,2015-07-03T18:30:00Z,30.3085,-88.1395,2.432,6.83,1111122 
DISL,ioos:station:DISL:CATA:1,2015-07-03T19:00:00Z,30.3085,-88.1395,2.411,6.28,1111122 
DISL,ioos:station:DISL:CATA:1,2015-07-03T19:30:00Z,30.3085,-88.1395,2.391,4.76,1111122 
DISL,ioos:station:DISL:CATA:1,2015-07-03T20:00:00Z,30.3085,-88.1395,2.363,5.72,1111122 
DISL,ioos:station:DISL:CATA:1,2015-07-03T20:30:00Z,30.3085,-88.1395,2.332,4.51,1111122 
DISL,ioos:station:DISL:CATA:1,2015-07-03T21:00:00Z,30.3085,-88.1395,2.291,4.36,1111122 
DISL,ioos:station:DISL:CATA:1,2015-07-03T21:30:00Z,30.3085,-88.1395,2.248,4.59,1111122 
DISL,ioos:station:DISL:CATA:1,2015-07-03T22:00:00Z,30.3085,-88.1395,2.203,4.78,1111122 
DISL,ioos:station:DISL:CATA:1,2015-07-03T22:30:00Z,30.3085,-88.1395,2.161,4.3,1111122 
DISL,ioos:station:DISL:CATA:1,2015-07-03T23:00:00Z,30.3085,-88.1395,2.123,3.75,1111122 
DISL,ioos:station:DISL:CATA:1,2015-07-03T23:30:00Z,30.3085,-88.1395,2.096,3.67,1111122 
DISL,ioos:station:DISL:CATA:1,2015-07-04T00:00:00Z,30.3085,-88.1395,2.056,3.91,1111122 
DISL,ioos:station:DISL:CATA:1,2015-07-04T00:30:00Z,30.3085,-88.1395,2.018,4.2,1111122 
DISL,ioos:station:DISL:CATA:1,2015-07-04T01:00:00Z,30.3085,-88.1395,2.014,4.6,1111122 
DISL,ioos:station:DISL:CATA:1,2015-07-04T01:30:00Z,30.3085,-88.1395,1.99,4.8,1111122 
DISL,ioos:station:DISL:CATA:1,2015-07-04T02:00:00Z,30.3085,-88.1395,1.975,5.07,1111122 
DISL,ioos:station:DISL:CATA:1,2015-07-04T02:30:00Z,30.3085,-88.1395,1.972,5.0,1111122 
DISL,ioos:station:DISL:CATA:1,2015-07-04T03:00:00Z,30.3085,-88.1395,1.973,5.29,1111122 
DISL,ioos:station:DISL:CATA:1,2015-07-04T03:30:00Z,30.3085,-88.1395,1.965,5.72,1111122 
DISL,ioos:station:DISL:CATA:1,2015-07-04T04:00:00Z,30.3085,-88.1395,1.972,5.86,1111122 
DISL,ioos:station:DISL:CATA:1,2015-07-04T04:30:00Z,30.3085,-88.1395,1.979,4.32,1111122 
DISL,ioos:station:DISL:CATA:1,2015-07-04T05:00:00Z,30.3085,-88.1395,1.994,4.41,1111122 
DISL,ioos:station:DISL:CATA:1,2015-07-04T05:30:00Z,30.3085,-88.1395,1.999,5.78,1111122 
DISL,ioos:station:DISL:CATA:1,2015-07-04T06:00:00Z,30.3085,-88.1395,2.001,5.76,1111122 
DISL,ioos:station:DISL:CATA:1,2015-07-04T06:30:00Z,30.3085,-88.1395,2.003,5.59,1111122 
DISL,ioos:station:DISL:CATA:1,2015-07-04T07:00:00Z,30.3085,-88.1395,2.025,5.32,1111122 
DISL,ioos:station:DISL:CATA:1,2015-07-04T07:30:00Z,30.3085,-88.1395,2.04,5.19,1111122 
DISL,ioos:station:DISL:CATA:1,2015-07-04T08:00:00Z,30.3085,-88.1395,2.068,5.74,1111122 
DISL,ioos:station:DISL:CATA:1,2015-07-04T08:30:00Z,30.3085,-88.1395,2.089,5.86,1111122 
DISL,ioos:station:DISL:CATA:1,2015-07-04T09:00:00Z,30.3085,-88.1395,2.112,5.91,1111122 
DISL,ioos:station:DISL:CATA:1,2015-07-04T09:30:00Z,30.3085,-88.1395,2.134,5.94,1111122 
DISL,ioos:station:DISL:CATA:1,2015-07-04T10:00:00Z,30.3085,-88.1395,2.156,5.88,1111122 
DISL,ioos:station:DISL:CATA:1,2015-07-04T10:30:00Z,30.3085,-88.1395,2.187,5.81,1111122 
DISL,ioos:station:DISL:CATA:1,2015-07-04T11:00:00Z,30.3085,-88.1395,2.2,5.87,1111122 
DISL,ioos:station:DISL:CATA:1,2015-07-04T11:30:00Z,30.3085,-88.1395,2.221,6.05,1111122 
DISL,ioos:station:DISL:CATA:1,2015-07-04T12:00:00Z,30.3085,-88.1395,2.234,5.99,1111122 
DISL,ioos:station:DISL:CATA:1,2015-07-04T12:30:00Z,30.3085,-88.1395,2.26,6.12,1111122 
DISL,ioos:station:DISL:CATA:1,2015-07-04T13:00:00Z,30.3085,-88.1395,2.28,6.11,1111122 
DISL,ioos:station:DISL:CATA:1,2015-07-04T13:30:00Z,30.3085,-88.1395,2.303,5.95,1111122 
DISL,ioos:station:DISL:CATA:1,2015-07-04T14:00:00Z,30.3085,-88.1395,2.322,6.03,1111122 
DISL,ioos:station:DISL:CATA:1,2015-07-04T14:30:00Z,30.3085,-88.1395,2.358,6.08,1111122 
DISL,ioos:station:DISL:CATA:1,2015-07-04T15:00:00Z,30.3085,-88.1395,2.38,6.14,1111122 
DISL,ioos:station:DISL:CATA:1,2015-07-04T15:30:00Z,30.3085,-88.1395,2.4,6.26,1111122 
DISL,ioos:station:DISL:CATA:1,2015-07-04T16:00:00Z,30.3085,-88.1395,2.417,6.31,1111122 
DISL,ioos:station:DISL:CATA:1,2015-07-04T16:30:00Z,30.3085,-88.1395,2.425,6.31,1111122 
DISL,ioos:station:DISL:CATA:1,2015-07-04T17:00:00Z,30.3085,-88.1395,2.421,6.37,1111122 
DISL,ioos:station:DISL:CATA:1,2015-07-04T17:30:00Z,30.3085,-88.1395,2.427,6.45,1111122 
DISL,ioos:station:DISL:CATA:1,2015-07-04T18:00:00Z,30.3085,-88.1395,2.424,6.67,1111122 
DISL,ioos:station:DISL:CATA:1,2015-07-04T18:30:00Z,30.3085,-88.1395,2.404,6.92,1111122 
DISL,ioos:station:DISL:CATA:1,2015-07-04T19:00:00Z,30.3085,-88.1395,2.392,6.75,1111122 
DISL,ioos:station:DISL:CATA:1,2015-07-04T19:30:00Z,30.3085,-88.1395,2.374,6.55,1111122 
DISL,ioos:station:DISL:CATA:1,2015-07-04T20:00:00Z,30.3085,-88.1395,2.368,6.44,1111122 
DISL,ioos:station:DISL:CATA:1,2015-07-04T20:30:00Z,30.3085,-88.1395,2.351,5.25,1111122 
DISL,ioos:station:DISL:CATA:1,2015-07-04T21:00:00Z,30.3085,-88.1395,2.325,5.23,1111122 
DISL,ioos:station:DISL:CATA:1,2015-07-04T21:30:00Z,30.3085,-88.1395,2.289,3.99,1111122 
DISL,ioos:station:DISL:CATA:1,2015-07-04T22:00:00Z,30.3085,-88.1395,2.264,4.01,1111122 
DISL,ioos:station:DISL:CATA:1,2015-07-04T22:30:00Z,30.3085,-88.1395,2.222,4.37,1111122 
DISL,ioos:station:DISL:CATA:1,2015-07-04T23:00:00Z,30.3085,-88.1395,2.186,4.66,1111122 
DISL,ioos:station:DISL:CATA:1,2015-07-04T23:30:00Z,30.3085,-88.1395,2.149,4.12,1111122 
DISL,ioos:station:DISL:CATA:1,2015-07-05T00:00:00Z,30.3085,-88.1395,2.097,4.95,1111122 
DISL,ioos:station:DISL:CATA:1,2015-07-05T00:30:00Z,30.3085,-88.1395,2.163,4.6,1111122 
DISL,ioos:station:DISL:CATA:1,2015-07-05T01:00:00Z,30.3085,-88.1395,2.039,4.39,1111122 
DISL,ioos:station:DISL:CATA:1,2015-07-05T01:30:00Z,30.3085,-88.1395,1.945,4.51,1111122 
DISL,ioos:station:DISL:CATA:1,2015-07-05T02:00:00Z,30.3085,-88.1395,1.929,4.73,1111122 
DISL,ioos:station:DISL:CATA:1,2015-07-05T02:30:00Z,30.3085,-88.1395,1.967,5.24,1111122 
DISL,ioos:station:DISL:CATA:1,2015-07-05T03:00:00Z,30.3085,-88.1395,1.908,5.56,1111122 
DISL,ioos:station:DISL:CATA:1,2015-07-05T03:30:00Z,30.3085,-88.1395,1.88,5.86,1111122 
DISL,ioos:station:DISL:CATA:1,2015-07-05T04:00:00Z,30.3085,-88.1395,1.879,5.93,1111122 
DISL,ioos:station:DISL:CATA:1,2015-07-05T04:30:00Z,30.3085,-88.1395,1.909,5.85,1111122 
DISL,ioos:station:DISL:CATA:1,2015-07-05T05:00:00Z,30.3085,-88.1395,1.945,5.77,1111122 
DISL,ioos:station:DISL:CATA:1,2015-07-05T05:30:00Z,30.3085,-88.1395,1.984,5.67,1111122 
DISL,ioos:station:DISL:CATA:1,2015-07-05T06:00:00Z,30.3085,-88.1395,2.012,5.64,1111122 
DISL,ioos:station:DISL:CATA:1,2015-07-05T06:30:00Z,30.3085,-88.1395,2.01,5.3,1111122 
DISL,ioos:station:DISL:CATA:1,2015-07-05T07:00:00Z,30.3085,-88.1395,2.007,5.55,1111122 
DISL,ioos:station:DISL:CATA:1,2015-07-05T07:30:00Z,30.3085,-88.1395,2.013,5.62,1111122 
DISL,ioos:station:DISL:CATA:1,2015-07-05T08:00:00Z,30.3085,-88.1395,2.041,5.49,1111122 
DISL,ioos:station:DISL:CATA:1,2015-07-05T08:30:00Z,30.3085,-88.1395,2.062,5.4,1111122 
DISL,ioos:station:DISL:CATA:1,2015-07-05T09:00:00Z,30.3085,-88.1395,2.097,5.08,1111122 
DISL,ioos:station:DISL:CATA:1,2015-07-05T09:30:00Z,30.3085,-88.1395,2.113,5.18,1111122 
DISL,ioos:station:DISL:CATA:1,2015-07-05T10:00:00Z,30.3085,-88.1395,2.132,5.46,1111122 
DISL,ioos:station:DISL:CATA:1,2015-07-05T10:30:00Z,30.3085,-88.1395,2.161,5.49,1111122 
DISL,ioos:station:DISL:CATA:1,2015-07-05T11:00:00Z,30.3085,-88.1395,2.195,5.52,1111122 
DISL,ioos:station:DISL:CATA:1,2015-07-05T11:30:00Z,30.3085,-88.1395,2.165,5.54,1111122 
DISL,ioos:station:DISL:CATA:1,2015-07-05T12:00:00Z,30.3085,-88.1395,2.156,5.49,1111122 
DISL,ioos:station:DISL:CATA:1,2015-07-05T12:30:00Z,30.3085,-88.1395,2.243,5.52,1111122 
DISL,ioos:station:DISL:CATA:1,2015-07-05T13:00:00Z,30.3085,-88.1395,2.257,5.14,1111122 
DISL,ioos:station:DISL:CATA:1,2015-07-05T13:30:00Z,30.3085,-88.1395,2.286,5.36,1111122 
DISL,ioos:station:DISL:CATA:1,2015-07-05T14:00:00Z,30.3085,-88.1395,2.312,5.49,1111122 
DISL,ioos:station:DISL:CATA:1,2015-07-05T14:30:00Z,30.3085,-88.1395,2.31,5.29,1111122 
DISL,ioos:station:DISL:CATA:1,2015-07-05T15:00:00Z,30.3085,-88.1395,2.343,5.36,1111122 
DISL,ioos:station:DISL:CATA:1,2015-07-05T15:30:00Z,30.3085,-88.1395,2.363,5.95,1111122 
DISL,ioos:station:DISL:CATA:1,2015-07-05T16:00:00Z,30.3085,-88.1395,2.377,6.17,1111122 
DISL,ioos:station:DISL:CATA:1,2015-07-05T16:30:00Z,30.3085,-88.1395,2.387,6.0,1111122 
DISL,ioos:station:DISL:CATA:1,2015-07-05T17:00:00Z,30.3085,-88.1395,2.443,6.06,1111122 
DISL,ioos:station:DISL:CATA:1,2015-07-05T17:30:00Z,30.3085,-88.1395,2.459,6.38,1111122 
DISL,ioos:station:DISL:CATA:1,2015-07-05T18:00:00Z,30.3085,-88.1395,2.429,6.34,1111122 
DISL,ioos:station:DISL:CATA:1,2015-07-05T18:30:00Z,30.3085,-88.1395,2.401,6.12,1111122 
DISL,ioos:station:DISL:CATA:1,2015-07-05T19:00:00Z,30.3085,-88.1395,2.387,4.65,1111122 
DISL,ioos:station:DISL:CATA:1,2015-07-05T19:30:00Z,30.3085,-88.1395,2.344,5.95,1111122 
DISL,ioos:station:DISL:CATA:1,2015-07-05T20:00:00Z,30.3085,-88.1395,2.345,5.94,1111122 
DISL,ioos:station:DISL:CATA:1,2015-07-05T20:30:00Z,30.3085,-88.1395,2.294,5.97,1111122 
DISL,ioos:station:DISL:CATA:1,2015-07-05T21:00:00Z,30.3085,-88.1395,2.266,6.22,1111122 
DISL,ioos:station:DISL:CATA:1,2015-07-05T21:30:00Z,30.3085,-88.1395,2.294,6.58,1111122 
DISL,ioos:station:DISL:CATA:1,2015-07-05T22:00:00Z,30.3085,-88.1395,2.316,6.34,1111122 
DISL,ioos:station:DISL:CATA:1,2015-07-05T22:30:00Z,30.3085,-88.1395,2.226,6.26,1111122 
DISL,ioos:station:DISL:CATA:1,2015-07-05T23:00:00Z,30.3085,-88.1395,2.202,6.1,1111122 
DISL,ioos:station:DISL:CATA:1,2015-07-05T23:30:00Z,30.3085,-88.1395,2.113,6.08,1111122 
DISL,ioos:station:DISL:CATA:1,2015-07-06T00:00:00Z,30.3085,-88.1395,2.046,6.11,1111122 
DISL,ioos:station:DISL:CATA:1,2015-07-06T00:30:00Z,30.3085,-88.1395,2.002,6.21,1111122 
DISL,ioos:station:DISL:CATA:1,2015-07-06T01:00:00Z,30.3085,-88.1395,1.988,6.18,1111122 
DISL,ioos:station:DISL:CATA:1,2015-07-06T01:30:00Z,30.3085,-88.1395,2.004,6.12,1111122 
DISL,ioos:station:DISL:CATA:1,2015-07-06T02:00:00Z,30.3085,-88.1395,2.012,6.15,1111122 
DISL,ioos:station:DISL:CATA:1,2015-07-06T02:30:00Z,30.3085,-88.1395,2.005,6.25,1111122 
DISL,ioos:station:DISL:CATA:1,2015-07-06T03:00:00Z,30.3085,-88.1395,2.001,5.89,1111122 
DISL,ioos:station:DISL:CATA:1,2015-07-06T03:30:00Z,30.3085,-88.1395,2.029,6.17,1111122 
DISL,ioos:station:DISL:CATA:1,2015-07-06T04:00:00Z,30.3085,-88.1395,2.033,5.98,1111122 
DISL,ioos:station:DISL:CATA:1,2015-07-06T04:30:00Z,30.3085,-88.1395,2.038,5.65,1111122 
DISL,ioos:station:DISL:CATA:1,2015-07-06T05:00:00Z,30.3085,-88.1395,1.951,5.76,1111122 
DISL,ioos:station:DISL:CATA:1,2015-07-06T05:30:00Z,30.3085,-88.1395,1.918,5.72,1111122 
DISL,ioos:station:DISL:CATA:1,2015-07-06T06:00:00Z,30.3085,-88.1395,1.93,5.87,1111122 
DISL,ioos:station:DISL:CATA:1,2015-07-06T06:30:00Z,30.3085,-88.1395,1.967,5.99,1111122 
DISL,ioos:station:DISL:CATA:1,2015-07-06T07:00:00Z,30.3085,-88.1395,2.025,5.68,1111122 
DISL,ioos:station:DISL:CATA:1,2015-07-06T07:30:00Z,30.3085,-88.1395,2.09,5.17,1111122 
DISL,ioos:station:DISL:CATA:1,2015-07-06T08:00:00Z,30.3085,-88.1395,2.11,5.66,1111122 
DISL,ioos:station:DISL:CATA:1,2015-07-06T08:30:00Z,30.3085,-88.1395,2.094,5.81,1111122 
DISL,ioos:station:DISL:CATA:1,2015-07-06T09:00:00Z,30.3085,-88.1395,2.064,5.5,1111122 
DISL,ioos:station:DISL:CATA:1,2015-07-06T09:30:00Z,30.3085,-88.1395,2.103,5.48,1111122 
DISL,ioos:station:DISL:CATA:1,2015-07-06T10:00:00Z,30.3085,-88.1395,2.099,5.34,1111122 
DISL,ioos:station:DISL:CATA:1,2015-07-06T10:30:00Z,30.3085,-88.1395,2.058,5.27,1111122 
DISL,ioos:station:DISL:CATA:1,2015-07-06T11:00:00Z,30.3085,-88.1395,2.063,5.21,1111122 
DISL,ioos:station:DISL:CATA:1,2015-07-06T11:30:00Z,30.3085,-88.1395,2.086,5.16,1111122 
DISL,ioos:station:DISL:CATA:1,2015-07-06T12:00:00Z,30.3085,-88.1395,2.121,5.35,1111122 
DISL,ioos:station:DISL:CATA:1,2015-07-06T12:30:00Z,30.3085,-88.1395,2.165,5.24,1111122 
DISL,ioos:station:DISL:CATA:1,2015-07-06T13:00:00Z,30.3085,-88.1395,2.18,4.75,1111122 
DISL,ioos:station:DISL:CATA:1,2015-07-06T13:30:00Z,30.3085,-88.1395,2.169,5.05,1111122 
DISL,ioos:station:DISL:CATA:1,2015-07-06T14:00:00Z,30.3085,-88.1395,2.18,5.54,1111122 
DISL,ioos:station:DISL:CATA:1,2015-07-06T14:30:00Z,30.3085,-88.1395,2.174,5.29,1111122 
DISL,ioos:station:DISL:CATA:1,2015-07-06T15:00:00Z,30.3085,-88.1395,2.18,5.16,1111122 
DISL,ioos:station:DISL:CATA:1,2015-07-06T15:30:00Z,30.3085,-88.1395,2.182,5.49,1111122 